Regional Weather Roundup
Issued by NWS

Home | Current Version | Previous Version | Text Only | Print | Product List | Glossary Off
Versions: 1 2 3 4 5 6 7 8 9 10 11 12 13 14 15 16 17 18 19 20 21 22 23 24 25 26 27 28 29 30 31 32 33 34 35 36 37 38 39 40 41 42 43 44 45 46 47 48 49 50

000
ASUS43 KIND 050109
RWRIN

WEATHER ROUNDUP FOR INDIANA
NATIONAL WEATHER SERVICE INDIANAPOLIS IN
900 PM EDT FRI SEP 04 2015

NOTE: "FAIR" INDICATES FEW OR NO CLOUDS BELOW 12,000 FEET WITH NO
SIGNIFICANT WEATHER AND/OR OBSTRUCTIONS TO VISIBILITY.

* - STATION DOES NOT REPORT WEATHER SUCH AS PRECIPITATION OR FOG.

+ - STATION NOT QUALITY CONTROLLED BY THE NATIONAL WEATHER SERVICE.
    USE DATA WITH CAUTION...ESPECIALLY DEWPOINT AND RELATIVE
    HUMIDITY OBSERVATIONS.

INZ001>003-010>013-019-020-050200-
NORTHWEST INDIANA

CITY           SKY/WX    TMP DP  RH WIND       PRES   REMARKS
GARY /AIRPORT/ PTCLDY    73  68  83 NE7       30.04S
KNOX *+        MOCLDY    70  70 100 S3        30.03S
LA PORTE +     MOCLDY    76  76 100 CALM      30.05R
MICHIGAN CITY+ CLOUDY    70  70 100 CALM      30.05R
MONTICELLO +   CLOUDY    72  70  95 CALM      30.03S
RENSSELAER +   MOCLDY    68  68 100 CALM      30.04R
VALPARAISO     PTCLDY    74  70  87 NE3       30.03F

$$

LMZ046-743>745-050200-
SOUTHERN LAKE MICHIGAN

STATION/POSITION TIME  TEMP    WIND        PRES    WAVE
                       AIR SEA DIR/SP/G            HT
                 (UTC) (F)     (DEG/KT/KT) (MB)    (FT)
BURNS HARBOR     0000   72      70/ 10/ 12 1017.3F
MICHIGAN CITY    0000   71      30/  9/ 10   N/A
5NW MICH CITY    0100   72 74  100/  8/  8   N/A     1

$$

INZ004-005-014>016-021>024-050200-
NORTH CENTRAL INDIANA

CITY           SKY/WX    TMP DP  RH WIND       PRES   REMARKS
ELKHART        MOCLDY    75  72  88 CALM      30.05R
GOSHEN         MOCLDY    71  65  81 CALM      30.04S
LOGANSPORT +   CLOUDY    68  61  77 S5        30.05S
PERU/GRISSOM   MOCLDY    70  65  85 S9        30.04S
ROCHESTER +    MOCLDY    70  70 100 CALM      30.04S
SOUTH BEND     MOCLDY    74  69  85 W5        30.05R
WARSAW +       MOCLDY    70  64  83 CALM      30.04S

$$

INZ006>009-017-018-025>027-050200-
NORTHEAST INDIANA

CITY           SKY/WX    TMP DP  RH WIND       PRES   REMARKS
ANGOLA *+      CLEAR     72  70  94 CALM      30.06R
AUBURN +       CLOUDY    70  64  83 CALM      30.06R
FORT WAYNE     CLOUDY    68  65  90 NE8       30.07R
HUNTINGTON +   CLOUDY    67  63  84 S7        30.05S

$$

INZ028-029-035-036-043>045-051>053-050200-
WEST CENTRAL INDIANA

CITY           SKY/WX    TMP DP  RH WIND       PRES   REMARKS
CRAWFORDSVL +  CLOUDY    67  63  87 SW6       30.06S
GREENCASTLE +  CLOUDY    73  61  64 CALM      30.06S
LAFAYETTE      CLOUDY    74  64  71 CALM      30.03R
TERRE HAUTE    PTCLDY    80  67  64 NE12      30.03R

$$

INZ030>032-037>040-046>048-054>057-064-065-050200-
CENTRAL INDIANA

CITY           SKY/WX    TMP DP  RH WIND       PRES   REMARKS
COLUMBUS       CLEAR     73  59  60 E12       30.07S
FISHERS *+     CLOUDY    72  66  83 SE6       30.06
FRANKFORT +    CLOUDY    72  72 100 CALM      30.06F
GREENWOOD *+   CLOUDY    75  63  64 CALM      30.09R
INDIANAPOLIS   TSTM      75  69  81 SW10      30.05S
-EAGLE CREEK   LGT RAIN  76  69  79 MISG      30.05F
KOKOMO *+      MOCLDY    70  63  78 SE6       30.05F
MARION +       MOCLDY    68  58  70 S5        30.07R
MT COMFORT *+  CLOUDY    68  68 100 S6        30.07F
SHELBYVILLE    CLOUDY    73  65  75 E6        30.07R
ZIONSVILLE +   CLOUDY    73  67  82 SW5       30.07F

$$

INZ033-034-041-042-049-050-058-059-050200-
EAST CENTRAL INDIANA

CITY           SKY/WX    TMP DP  RH WIND       PRES   REMARKS
MUNCIE         CLOUDY    69  63  81 S5        30.07F

$$

INZ060-061-067>069-081>083-085>088-050200-
SOUTHWEST INDIANA

CITY           SKY/WX    TMP DP  RH WIND       PRES   REMARKS
EVANSVILLE     CLEAR     82  69  64 CALM      30.01R
HUNTINGBURG *+ CLEAR     81  66  61 CALM      30.02S
WASHINGTON +   CLEAR     77  67  70 CALM      30.01S

$$

INZ062-063-066-070>080-084-089>092-050200-
SOUTH CENTRAL AND SOUTHEAST INDIANA

CITY           SKY/WX    TMP DP  RH WIND       PRES   REMARKS
BLOOMINGTON    MOCLDY    77  72  84 CALM      30.04S
MADISON *+     MOCLDY    77  64  65 NE21G35   30.10R
NORTH VERNON + RAIN      73  70  88 NE12G30   30.08R
SEYMOUR +      PTCLDY    81  64  57 NE21G26   30.06R

$$




USA.gov is the U.S. government's official web portal to all federal, state and local government web resources and services.